Fredericksburg, TX

1:09 PM CST on November 20, 2019 (GMT -0600)
Fredericksburg

Weather History for KT82 - October, 2019

Change the Weather History Date:

Wednesday, October 23, 2019

  Actual Average (WUND) Record (WUND)
Temperature  
Mean Temperature 67 °F -  
Max Temperature 80 °F - - (-1)
Min Temperature 54 °F - - (-1)
Cooling Degree Days 2    
Growing Degree Days 17 (Base 50)    
Moisture  
Dew Point 48 °F    
Average Humidity 52    
Maximum Humidity 72    
Minimum Humidity 33    
Precipitation  
Precipitation 0.00 in - - ()
Sea Level Pressure  
Sea Level Pressure 30.05 in    
Wind  
Wind Speed 7 mph ()    
Max Wind Speed 21 mph    
Max Gust Speed 28 mph    
Visibility 10.0 miles    
Events      
Averages and records for this station are not official NWS values.
T = Trace of Precipitation, MM = Missing Value Source: Averaged Metar Reports

Daily Weather History Graph

Daily Weather History Graph

Search for Another Location

Airport or City:

Astronomy

Oct. 23, 2019 Rise Set
Actual Time 7:43 AM CDT 6:56 PM CDT
Civil Twilight 7:18 AM CDT 7:20 PM CDT
Nautical Twilight 6:50 AM CDT 7:48 PM CDT
Astronomical Twilight 6:22 AM CDT 8:16 PM CDT
Moon 2:34 AM CDT (10/23) 4:20 PM CDT (10/23)
Length of Visible Light 12h 02m
Length of Day
11h 13m
Waning Crescent, 26% of the Moon is Illuminated
Oct 23
Waning Crescent
Oct 27
New
Nov 4
First Quarter
Nov 12
Full
Nov 19
Last Quarter

Hourly Weather History & Observations

Time (CDT) Temp. Dew Point Humidity Pressure Visibility Wind Dir Wind Speed Gust Speed Precip Events Conditions
12:15 AM 61.0 °F 32.2 °F 34% 30.12 in 10.0 mi South 9.2 mph - N/A   Clear
12:35 AM 59.5 °F 33.6 °F 38% 30.12 in 10.0 mi South 4.6 mph - N/A   Clear
12:55 AM 58.1 °F 34.7 °F 41% 30.13 in 10.0 mi South 4.6 mph - N/A   Clear
1:15 AM 57.4 °F 36.5 °F 46% 30.12 in 10.0 mi South 4.6 mph - N/A   Clear
1:35 AM 56.8 °F 38.5 °F 50% 30.12 in 10.0 mi South 4.6 mph - N/A   Clear
1:55 AM 56.7 °F 39.4 °F 52% 30.12 in 10.0 mi South 3.5 mph - N/A   Clear
2:15 AM 56.3 °F 40.3 °F 55% 30.12 in 10.0 mi South 4.6 mph - N/A   Clear
2:35 AM 56.3 °F 40.8 °F 56% 30.12 in 10.0 mi South 4.6 mph - N/A   Clear
2:55 AM 56.1 °F 40.8 °F 57% 30.12 in 10.0 mi South 4.6 mph - N/A   Clear
3:15 AM 55.8 °F 42.1 °F 60% 30.11 in 10.0 mi South 4.6 mph - N/A   Clear
3:35 AM 57.2 °F 42.6 °F 58% 30.11 in 10.0 mi South 5.8 mph - N/A   Clear
3:55 AM 57.4 °F 43.7 °F 60% 30.11 in 10.0 mi South 6.9 mph - N/A   Clear
4:15 AM 56.1 °F 44.1 °F 64% 30.10 in 10.0 mi South 4.6 mph - N/A   Clear
4:35 AM 57.2 °F 45.1 °F 64% 30.10 in 10.0 mi South 4.6 mph - N/A   Clear
4:55 AM 57.6 °F 45.1 °F 63% 30.10 in 10.0 mi SSE 3.5 mph - N/A   Clear
5:15 AM 57.6 °F 45.1 °F 63% 30.10 in 10.0 mi SSE 3.5 mph - N/A   Clear
5:35 AM 57.4 °F 44.8 °F 63% 30.10 in 10.0 mi SSE 4.6 mph - N/A   Clear
5:55 AM 56.7 °F 44.6 °F 64% 30.09 in 10.0 mi SE 3.5 mph - N/A   Clear
6:15 AM 55.9 °F 44.4 °F 65% 30.09 in 10.0 mi SE 3.5 mph - N/A   Clear
6:35 AM 55.2 °F 44.6 °F 67% 30.10 in 10.0 mi SE 3.5 mph - N/A   Clear
6:55 AM 55.6 °F 44.4 °F 66% 30.09 in 10.0 mi Calm Calm - N/A   Clear
7:15 AM 54.7 °F 44.6 °F 69% 30.09 in 10.0 mi SSE 3.5 mph - N/A   Clear
7:35 AM 55.6 °F 45.0 °F 67% 30.09 in 10.0 mi SSE 3.5 mph - N/A   Clear
7:55 AM 55.0 °F 45.3 °F 70% 30.09 in 10.0 mi Calm Calm - N/A   Clear
8:15 AM 55.4 °F 46.2 °F 71% 30.10 in 10.0 mi Calm Calm - N/A   Clear
8:35 AM 57.4 °F 48.4 °F 72% 30.10 in 10.0 mi Calm Calm - N/A   Clear
8:55 AM 60.1 °F 50.2 °F 70% 30.10 in 10.0 mi South 3.5 mph - N/A   Clear
9:15 AM 63.0 °F 52.3 °F 68% 30.11 in 10.0 mi SSW 3.5 mph - N/A   Clear
9:35 AM 66.2 °F 53.8 °F 64% 30.11 in 10.0 mi South 10.4 mph 17.3 mph N/A   Clear
9:55 AM 67.5 °F 54.1 °F 62% 30.11 in 10.0 mi South 12.7 mph 17.3 mph N/A   Clear
10:15 AM 68.5 °F 54.1 °F 60% 30.11 in 10.0 mi SSW 13.8 mph 20.7 mph N/A   Clear
10:35 AM 69.8 °F 54.5 °F 58% 30.11 in 10.0 mi SSW 17.3 mph 23.0 mph N/A   Scattered Clouds
10:55 AM 70.7 °F 53.6 °F 55% 30.11 in 10.0 mi SSW 17.3 mph 24.2 mph N/A   Scattered Clouds
11:15 AM 72.5 °F 52.0 °F 48% 30.10 in 10.0 mi South 17.3 mph 24.2 mph N/A   Clear
11:35 AM 73.2 °F 51.3 °F 46% 30.10 in 10.0 mi SSW 19.6 mph - N/A   Clear
11:55 AM 74.1 °F 50.5 °F 43% 30.09 in 10.0 mi SSW 19.6 mph 25.3 mph N/A   Clear
12:15 PM 74.7 °F 51.1 °F 44% 30.08 in 10.0 mi South 20.7 mph 25.3 mph N/A   Clear
12:35 PM 75.2 °F 50.5 °F 42% 30.07 in 10.0 mi SSW 13.8 mph 26.5 mph N/A   Clear
12:55 PM 76.3 °F 50.2 °F 40% 30.06 in 10.0 mi SSW 16.1 mph 27.6 mph N/A   Clear
1:35 PM 78.4 °F 50.4 °F 37% 30.03 in 10.0 mi SSW 15.0 mph 26.5 mph N/A   Clear
1:55 PM 78.1 °F 48.4 °F 35% 30.02 in 10.0 mi SSW 18.4 mph 26.5 mph N/A   Clear
2:15 PM 79.0 °F 49.3 °F 35% 30.00 in 10.0 mi SSW 17.3 mph 25.3 mph N/A   Clear
2:55 PM 80.6 °F 49.6 °F 34% 29.98 in 10.0 mi South 16.1 mph 21.9 mph N/A   Clear
3:15 PM 79.9 °F 50.2 °F 35% 29.97 in 10.0 mi South 13.8 mph 21.9 mph N/A   Clear
3:35 PM 80.6 °F 50.2 °F 35% 29.97 in 10.0 mi SSE 16.1 mph 26.5 mph N/A   Clear
3:55 PM 80.1 °F 50.2 °F 35% 29.96 in 10.0 mi South 17.3 mph 23.0 mph N/A   Clear
4:15 PM 79.9 °F 49.5 °F 34% 29.96 in 10.0 mi South 17.3 mph 25.3 mph N/A   Clear
4:35 PM 79.9 °F 49.8 °F 35% 29.96 in 10.0 mi South 15.0 mph 21.9 mph N/A   Clear
4:55 PM 79.7 °F 49.1 °F 34% 29.95 in 10.0 mi South 13.8 mph 21.9 mph N/A   Clear
5:15 PM 79.7 °F 50.2 °F 36% 29.95 in 10.0 mi South 16.1 mph 21.9 mph N/A   Clear
5:35 PM 79.7 °F 50.5 °F 36% 29.94 in 10.0 mi South 17.3 mph 20.7 mph N/A   Clear
5:55 PM 79.7 °F 48.4 °F 33% 29.94 in 10.0 mi South 15.0 mph 20.7 mph N/A   Clear
6:15 PM 78.8 °F 47.3 °F 33% 29.94 in 10.0 mi South 11.5 mph 16.1 mph N/A   Clear
6:35 PM 77.7 °F 46.6 °F 33% 29.94 in 10.0 mi SSE 8.1 mph 18.4 mph N/A   Clear
6:55 PM 76.1 °F 46.8 °F 35% 29.95 in 10.0 mi SSE 6.9 mph - N/A   Clear
7:15 PM 75.2 °F 47.3 °F 37% 29.95 in 10.0 mi South 5.8 mph - N/A   Clear
7:35 PM 74.1 °F 48.2 °F 40% 29.95 in 10.0 mi SSE 4.6 mph - N/A   Clear
7:55 PM 73.0 °F 49.1 °F 43% 29.96 in 10.0 mi SSE 4.6 mph - N/A   Clear
8:15 PM 72.7 °F 49.5 °F 44% 29.96 in 10.0 mi SSE 6.9 mph - N/A   Clear
8:35 PM 72.5 °F 50.0 °F 45% 29.97 in 10.0 mi SSE 5.8 mph - N/A   Clear
8:55 PM 72.0 °F 51.8 °F 49% 29.97 in 10.0 mi SSE 6.9 mph - N/A   Clear
9:15 PM 72.0 °F 53.8 °F 53% 29.98 in 10.0 mi SSE 9.2 mph - N/A   Clear
9:35 PM 71.8 °F 54.7 °F 55% 29.98 in 10.0 mi SSE 9.2 mph 16.1 mph N/A   Clear
9:55 PM 70.5 °F 55.2 °F 58% 29.99 in 10.0 mi SSE 8.1 mph - N/A   Clear
10:15 PM 69.8 °F 56.3 °F 62% 29.99 in 10.0 mi SSE 9.2 mph - N/A   Clear
10:35 PM 69.3 °F 57.2 °F 65% 30.00 in 10.0 mi SSE 12.7 mph 20.7 mph N/A   Clear
10:55 PM 69.1 °F 57.4 °F 66% 30.00 in 10.0 mi SSE 9.2 mph 19.6 mph N/A   Clear
11:15 PM 68.5 °F 57.7 °F 68% 30.00 in 10.0 mi South 10.4 mph - N/A   Clear
11:35 PM 68.0 °F 58.1 °F 71% 30.01 in 10.0 mi South 6.9 mph - N/A   Clear
11:55 PM 67.5 °F 58.3 °F 72% 30.00 in 10.0 mi South 8.1 mph - N/A   Mostly Cloudy